{"data":{"norad_id":65029,"epoch":"2026-05-25T03:54:08.011008Z","epoch_age_seconds":51068,"freshness":"FRESH","line1":"1 65029U 25161Q   26145.16259272  .00028954  00000+0  86473-3 0  9997","line2":"2 65029  53.1607 298.6031 0001384 116.5895 243.5250 15.34400763 47045","mean_motion":15.34400763,"eccentricity":0.0001384,"inclination_deg":53.1607,"raan_deg":298.6031,"arg_perigee_deg":116.5895,"mean_anomaly_deg":243.525,"bstar":0.00086473,"rev_number":4704,"period_min":93.847711414361,"perigee_km":461.75420043587,"apogee_km":463.64774438663,"semimajor_km":6840.8379724112,"source":"CELESTRAK","updated_at":"2026-05-25T13:38:20.671020Z"}}